STARLINK-32258, 60939

Orbit data source: Space-Track

STARLINK-32258, 60939 is a payload satellite owned by SpaceX/Seattle (US) in LEO that was launched on Sat, 31 Aug 2024 UTC via an FALCON 9 launch vehicle from the Air Force Western Test Range (AFWTR). Payloads include a variety of satellites, spacecraft, and rockets equipped with specific instruments for various scientific and technological missions. These include communications satellites like Starlink; space stations such as the ISS; scientific satellites like the Hubble; Earth observation satellites from companies like Planet Labs, Umbra, and HawkEye 360; GPS; miniature CubeSats for education and research; and military/defense satellites.

Loading next visibility...
STARLINK-32258 details
Identifier
60939, 2024-155R
Orbit
LEO
Last TLE update9 hours ago
Origin
Flag of USSpaceX/Seattle (US)
ManufacturerSpaceX/Seattle
MissionOperational spacecraft
Bus & MotorSTARLINK V2M, Unknown motor
Mass730 kg wet, ~700 kg dry
Launch date (UTC)
2024-08-31 (5 months ago)
Launch vehicle
FALCON 9
Launch site
Air Force Western Test Range (AFWTR)
Object type
Payload
Rocket body
Debris
Shape & HBRUnknown
Radar Cross SectionLarge (>1 m²)

Expand to show TLE details & history

TLE from 9 hours ago
0 STARLINK-32258
1 60939U 24155R   25015.10699452  .00001337  00000-0  57285-4 0  9998
2 60939  53.1608 273.9718 0001391  67.8870 292.2278 15.30177127 22201
Epoch: 2025-01-15T02:34Z
Definitive object data (Epoch: 2025-01-15T02:34:04.326Z)
Latitude-0.00005°
Longitude120.64965°
Altitude475.823 km
Speed7.629 km/s
True Right ascension18h 15m 53s
True Declination0° 00' 00"
Sunlit
Object was in daylight at TLE epoch
Visualization TLE readout
Latitude3.36889°
Longitude121.33901°
Altitude475.399 km
Speed7.63 km/s
Apparent Right ascension20h 48m 03s
Apparent Declination-24° 32' 24"
Sunlit
Object is in daylight
Visualization observer readout
Local Sidereal Time12:39:46
Azimuth90.642° ESE
Elevation-39.565°
Doppler factor1
Orbital elements
Apogee altitude476.493 km
Perigee altitude474.586 km
Semi-major axis6,853.677 km
Eccentricity0.0001391
Inclination53.1608°
RAAN273.9718°
Arg. of periapsis67.887°
True anomaly292.21304°
Mean anomaly292.2278°
Eccentric anomaly292.22042°
Mean motion3.82523 °/min
BSTAR0.000057285
Orbital period94.11 mins
Loading maneuver chart data...
Loading historical data...
Loading historical data...
Loading historical data...
Loading historical data...
Loading historical data...
Loading historical data...
Loading historical data...

STARLINK-32258 Visibility forecast

Observer location: undefined°, undefined

Span
Click to sort rows by Start time (UTC) header in descending order
Start Az.
Max El. time (UTC)
Max El. Az.
Max El.
End time (UTC)
End Az.
5 mins2025-01-15 20:00:29.395Z236.004° WSW2025-01-15 20:02:29.395Z265.55° W43.047°2025-01-15 20:05:29.395Z46.168° ENE
4 mins2025-01-16 00:57:29.395Z343.538° N2025-01-16 00:59:29.395Z20.729° NNE17.183°2025-01-16 01:01:29.395Z58.695° ENE
6 mins2025-01-16 02:35:29.395Z311.239° NW2025-01-16 02:37:29.395Z318.584° NNW43.026°2025-01-16 02:41:29.395Z129.834° SE
|